Hillsdale, MI

4:28 PM EDT on October 21, 2017 (GMT -0400)
Hillsdale Municipal

Weather History for KJYM - May, 2013

Change the Weather History Date:

Monday, May 20, 2013

  Actual Average Record
Temperature  
Mean Temperature 77 °F -  
Max Temperature 88 °F 71 °F 88 °F (1977)
Min Temperature 66 °F 46 °F 29 °F (1954)
Cooling Degree Days 12    
Growing Degree Days 27 (Base 50)    
Moisture  
Dew Point 64 °F    
Average Humidity 68    
Maximum Humidity 93    
Minimum Humidity 40    
Precipitation  
Precipitation 0.00 in - - ()
Sea Level Pressure  
Sea Level Pressure 29.89 in    
Wind  
Wind Speed 7 mph (South)    
Max Wind Speed 18 mph    
Max Gust Speed 25 mph    
Visibility 9 miles    
Events      
Averages and records for this station are not official NWS values.
T = Trace of Precipitation, MM = Missing Value Source: NWS Daily Summary

Daily Weather History Graph

Daily Weather History Graph

Search for Another Location

Airport or City:

Trip Planner

Search our weather history database for the weather conditions in past years. The results will help you decide how hot, cold, wet, or windy it might be!

Date:

Astronomy

May. 20, 2013 Rise Set
Actual Time 6:13 AM EDT 8:57 PM EDT
Civil Twilight 5:40 AM EDT 9:29 PM EDT
Nautical Twilight 5:00 AM EDT 10:10 PM EDT
Astronomical Twilight 4:13 AM EDT 10:57 PM EDT
Moon 3:59 PM EDT (5/20) 3:12 AM EDT (5/20)
Length of Visible Light 15h 48m
Length of Day
14h 43m
Waxing Gibbous, 75% of the Moon is Illuminated
May 20
Waxing Gibbous
May 25
Full
May 31
Last Quarter
Jun 8
New
Jun 16
First Quarter

Hourly Weather History & Observations

Time (EDT) Temp. Heat Index Dew Point Humidity Pressure Visibility Wind Dir Wind Speed Gust Speed Precip Events Conditions
12:14 AM 70.3 °F - 63.7 °F 79% 29.93 in 10.0 mi SE 3.5 mph - N/A   Clear
12:34 AM 69.6 °F - 63.7 °F 81% 29.93 in 10.0 mi SE 4.6 mph - N/A   Clear
12:54 AM 69.4 °F - 63.9 °F 82% 29.93 in 10.0 mi SE 3.5 mph - N/A   Clear
1:15 AM 69.1 °F - 63.9 °F 83% 29.93 in 10.0 mi SE 3.5 mph - N/A   Clear
1:34 AM 69.1 °F - 63.9 °F 83% 29.92 in 10.0 mi Calm Calm - N/A   Clear
1:54 AM 68.4 °F - 63.7 °F 85% 29.92 in 10.0 mi SE 3.5 mph - N/A   Clear
2:15 AM 68.4 °F - 63.9 °F 85% 29.92 in 10.0 mi SSE 3.5 mph - N/A   Clear
2:34 AM 67.5 °F - 63.5 °F 87% 29.93 in 10.0 mi SE 3.5 mph - N/A   Clear
2:55 AM 67.1 °F - 63.5 °F 88% 29.93 in 10.0 mi Calm Calm - N/A   Clear
3:14 AM 66.6 °F - 63.7 °F 90% 29.92 in 10.0 mi SE 5.8 mph - N/A   Clear
3:34 AM 67.5 °F - 64.0 °F 89% 29.91 in 10.0 mi SSE 3.5 mph - N/A   Clear
4:14 AM 66.7 °F - 63.9 °F 90% 29.91 in 10.0 mi SE 4.6 mph - N/A   Clear
4:35 AM 67.3 °F - 64.0 °F 89% 29.92 in 10.0 mi SE 4.6 mph - N/A   Scattered Clouds
4:55 AM 67.5 °F - 64.0 °F 89% 29.92 in 10.0 mi SE 5.8 mph - N/A   Mostly Cloudy
5:14 AM 67.3 °F - 64.0 °F 89% 29.92 in 10.0 mi SSE 5.8 mph - N/A   Scattered Clouds
5:35 AM 66.7 °F - 63.9 °F 90% 29.91 in 10.0 mi SSE 5.8 mph - N/A   Scattered Clouds
5:55 AM 66.6 °F - 63.9 °F 91% 29.91 in 10.0 mi SSE 6.9 mph - N/A   Scattered Clouds
6:14 AM 66.4 °F - 63.9 °F 92% 29.91 in 10.0 mi SE 5.8 mph - N/A   Clear
6:35 AM 66.4 °F - 64.0 °F 92% 29.91 in 7.0 mi SSE 5.8 mph - N/A   Clear
6:54 AM 66.4 °F - 64.2 °F 93% 29.90 in 7.0 mi SE 8.1 mph - N/A   Clear
7:15 AM 67.5 °F - 64.8 °F 91% 29.90 in 7.0 mi SE 10.4 mph - N/A   Clear
7:35 AM 67.6 °F - 64.9 °F 91% 29.91 in 7.0 mi South 6.9 mph - N/A   Clear
7:54 AM 68.5 °F - 65.7 °F 90% 29.93 in 7.0 mi South 5.8 mph - N/A   Clear
8:15 AM 70.2 °F - 66.2 °F 87% 29.94 in 7.0 mi South 6.9 mph - N/A   Clear
8:34 AM 71.2 °F - 66.9 °F 86% 29.94 in 7.0 mi SSW 8.1 mph - N/A   Clear
8:55 AM 73.4 °F - 68.2 °F 84% 29.94 in 7.0 mi SSW 6.9 mph - N/A   Clear
9:14 AM 75.9 °F - 69.3 °F 80% 29.94 in 7.0 mi SSW 8.1 mph - N/A   Clear
9:35 AM 76.6 °F - 69.8 °F 79% 29.95 in 7.0 mi SSW 10.4 mph - N/A   Scattered Clouds
9:55 AM 76.8 °F - 70.2 °F 80% 29.95 in 7.0 mi SW 6.9 mph - N/A   Mostly Cloudy
10:14 AM 77.7 °F - 70.0 °F 77% 29.93 in 7.0 mi South 8.1 mph - N/A   Mostly Cloudy
10:35 AM 77.2 °F - 69.6 °F 77% 29.93 in 7.0 mi SSW 6.9 mph - N/A   Overcast
10:55 AM 78.8 °F - 69.6 °F 73% 29.92 in 7.0 mi SW 9.2 mph - N/A   Mostly Cloudy
11:35 AM 80.1 °F 82.9 °F 68.9 °F 69% 29.92 in 7.0 mi SSW 9.2 mph - N/A   Scattered Clouds
11:54 AM 80.8 °F 83.6 °F 68.5 °F 66% 29.92 in 5.0 mi SW 6.9 mph - N/A   Haze
12:15 PM 81.5 °F 84.6 °F 68.5 °F 65% 29.91 in 10.0 mi SW 5.8 mph - N/A   Scattered Clouds
12:34 PM 83.1 °F 85.7 °F 67.1 °F 58% 29.91 in 10.0 mi SW 12.7 mph 17.3 mph N/A   Scattered Clouds
12:54 PM 82.9 °F 85.6 °F 67.1 °F 59% 29.92 in 10.0 mi SW 10.4 mph 16.1 mph N/A   Scattered Clouds
1:15 PM 84.0 °F 86.8 °F 67.1 °F 57% 29.91 in 10.0 mi South 10.4 mph - N/A   Scattered Clouds
1:34 PM 84.9 °F 87.6 °F 67.1 °F 55% 29.90 in 10.0 mi SSW 9.2 mph - N/A   Scattered Clouds
2:15 PM 84.9 °F 86.3 °F 64.6 °F 50% 29.89 in 10.0 mi South 12.7 mph 18.4 mph N/A   Scattered Clouds
2:54 PM 87.6 °F 88.5 °F 63.1 °F 44% 29.87 in 10.0 mi SW 15.0 mph 18.4 mph N/A   Scattered Clouds
3:15 PM 86.5 °F 87.3 °F 62.8 °F 45% 29.86 in 10.0 mi South 16.1 mph 21.9 mph N/A   Scattered Clouds
3:34 PM 87.6 °F 88.5 °F 63.0 °F 44% 29.85 in 10.0 mi South 15.0 mph 21.9 mph N/A   Clear
3:54 PM 88.2 °F 88.7 °F 62.2 °F 42% 29.84 in 10.0 mi South 15.0 mph 25.3 mph N/A   Scattered Clouds
4:15 PM 87.3 °F 87.7 °F 62.2 °F 43% 29.84 in 10.0 mi South 13.8 mph 21.9 mph N/A   Scattered Clouds
4:34 PM 87.1 °F 87.2 °F 61.7 °F 42% 29.83 in 10.0 mi SSW 18.4 mph 24.2 mph N/A   Scattered Clouds
4:55 PM 88.2 °F 88.1 °F 61.3 °F 40% 29.83 in 10.0 mi SSW 16.1 mph 21.9 mph N/A   Scattered Clouds
5:14 PM 87.3 °F 87.5 °F 61.3 °F 42% 29.83 in 10.0 mi SSW 15.0 mph 21.9 mph N/A   Scattered Clouds
5:34 PM 87.3 °F 87.5 °F 61.7 °F 42% 29.84 in 10.0 mi SSW 11.5 mph 20.7 mph N/A   Scattered Clouds
5:55 PM 86.7 °F 87.0 °F 61.9 °F 43% 29.85 in 10.0 mi SSW 11.5 mph 24.2 mph N/A   Scattered Clouds
6:14 PM 87.3 °F 88.0 °F 62.6 °F 44% 29.84 in 10.0 mi SW 13.8 mph 21.9 mph N/A   Scattered Clouds
6:35 PM 85.8 °F 86.3 °F 62.2 °F 45% 29.84 in 10.0 mi SW 15.0 mph - N/A   Clear
6:55 PM 86.2 °F 86.8 °F 62.2 °F 45% 29.84 in 10.0 mi SW 12.7 mph 19.6 mph N/A   Scattered Clouds
7:14 PM 85.5 °F 85.7 °F 61.3 °F 44% 29.84 in 10.0 mi SW 12.7 mph 19.6 mph N/A   Scattered Clouds
7:35 PM 85.3 °F 85.7 °F 61.7 °F 45% 29.84 in 10.0 mi SW 11.5 mph 16.1 mph N/A   Scattered Clouds
7:54 PM 83.8 °F 84.3 °F 61.7 °F 47% 29.84 in 10.0 mi SSW 13.8 mph 21.9 mph N/A   Scattered Clouds
8:14 PM 82.6 °F 83.4 °F 62.1 °F 50% 29.84 in 10.0 mi SSW 10.4 mph 16.1 mph N/A   Clear
8:35 PM 81.1 °F 82.1 °F 62.2 °F 52% 29.85 in 10.0 mi SW 6.9 mph - N/A   Clear
8:54 PM 80.2 °F 81.4 °F 62.4 °F 54% 29.85 in 10.0 mi SSW 5.8 mph - N/A   Clear
9:14 PM 79.0 °F - 62.6 °F 57% 29.85 in 10.0 mi SSW 9.2 mph - N/A   Clear
9:35 PM 78.6 °F - 62.6 °F 58% 29.85 in 10.0 mi SSW 5.8 mph - N/A   Clear
9:54 PM 77.9 °F - 62.8 °F 60% 29.85 in 10.0 mi SSW 5.8 mph - N/A   Clear
10:14 PM 76.5 °F - 63.1 °F 63% 29.85 in 10.0 mi South 3.5 mph - N/A   Clear
10:35 PM 75.7 °F - 63.3 °F 65% 29.86 in 10.0 mi South 4.6 mph - N/A   Clear
10:54 PM 75.2 °F - 63.3 °F 66% 29.86 in 10.0 mi South 3.5 mph - N/A   Clear
11:14 PM 74.5 °F - 63.5 °F 68% 29.86 in 10.0 mi South 3.5 mph - N/A   Clear
11:35 PM 73.9 °F - 64.0 °F 71% 29.86 in 10.0 mi South 4.6 mph - N/A   Clear
11:54 PM 73.8 °F - 64.0 °F 72% 29.85 in 10.0 mi South 3.5 mph - N/A   Clear